| time (UTC) | temp F | wind direction | speed MPH | gust MPH | rain 1hr in | rain 24hr in | rain mn in | humidity % | barometer mb |
| 20260507234505 | 76 | 315 | 8.0 | 20.0 | 0.00 | 0.00 | 0.00 | 28 | 1010.8 |
| 20260507233003 | 76 | 301 | 9.0 | 20.0 | 0.00 | 0.00 | 0.00 | 26 | 1010.7 |
| 20260507231501 | 76 | 303 | 8.0 | 15.0 | 0.00 | 0.00 | 0.00 | 24 | 1010.8 |
| 20260507230100 | 76 | 304 | 11.0 | 18.0 | 0.00 | 0.00 | 0.00 | 22 | 1011.0 |
| 20260507224601 | 77 | 328 | 5.0 | 15.0 | 0.00 | 0.00 | 0.00 | 24 | 1011.1 |
| 20260507223059 | 76 | 251 | 10.0 | 17.0 | 0.00 | 0.00 | 0.00 | 23 | 1011.1 |
| 20260507221557 | 76 | 276 | 9.0 | 20.0 | 0.00 | 0.00 | 0.00 | 23 | 1011.4 |
| 20260507220057 | 76 | 221 | 13.0 | 21.0 | 0.00 | 0.00 | 0.00 | 24 | 1011.2 |
| 20260507214556 | 76 | 216 | 15.0 | 21.0 | 0.00 | 0.00 | 0.00 | 24 | 1011.4 |
| 20260507213055 | 76 | 261 | 12.0 | 18.0 | 0.00 | 0.00 | 0.00 | 23 | 1011.8 |
| 20260507211553 | 77 | 273 | 8.0 | 16.0 | 0.00 | 0.00 | 0.00 | 24 | 1012.0 |
| 20260507210050 | 77 | 217 | 9.0 | 18.0 | 0.00 | 0.00 | 0.00 | 23 | 1012.2 |
| 20260507204553 | 75 | 251 | 5.0 | 17.0 | 0.00 | 0.00 | 0.00 | 24 | 1012.2 |
| 20260507203047 | 76 | 312 | 6.0 | 16.0 | 0.00 | 0.00 | 0.00 | 27 | 1012.3 |
| 20260507201553 | 75 | 268 | 11.0 | 16.0 | 0.00 | 0.00 | 0.00 | 24 | 1012.5 |
| 20260507200043 | 75 | 232 | 11.0 | 17.0 | 0.00 | 0.00 | 0.00 | 25 | 1012.5 |
| 20260507194542 | 74 | 307 | 5.0 | 13.0 | 0.00 | 0.00 | 0.00 | 29 | 1012.7 |
| 20260507193049 | 75 | 301 | 6.0 | 16.0 | 0.00 | 0.00 | 0.00 | 30 | 1012.9 |
| 20260507191538 | 74 | 205 | 7.0 | 12.0 | 0.00 | 0.00 | 0.00 | 32 | 1013.1 |
| 20260507190037 | 73 | 271 | 10.0 | 14.0 | 0.00 | 0.00 | 0.00 | 29 | 1013.2 |
| 20260507184534 | 73 | 318 | 2.0 | 8.0 | 0.00 | 0.00 | 0.00 | 30 | 1013.3 |
| 20260507183037 | 72 | 319 | 0.0 | 11.0 | 0.00 | 0.00 | 0.00 | 30 | 1013.6 |
| 20260507181530 | 71 | 309 | 3.0 | 11.0 | 0.00 | 0.00 | 0.00 | 32 | 1013.6 |
| 20260507180028 | 72 | 352 | 4.0 | 10.0 | 0.00 | 0.00 | 0.00 | 34 | 1013.7 |
| 20260507174527 | 70 | 84 | 4.0 | 9.0 | 0.00 | 0.00 | 0.00 | 35 | 1013.9 |
| 20260507173038 | 70 | 340 | 2.0 | 8.0 | 0.00 | 0.00 | 0.00 | 35 | 1013.9 |
| 20260507171522 | 69 | 140 | 0.0 | 4.0 | 0.00 | 0.00 | 0.00 | 36 | 1013.9 |
| 20260507170019 | 68 | 342 | 1.0 | 9.0 | 0.00 | 0.00 | 0.00 | 40 | 1014.1 |
| 20260507164519 | 67 | 315 | 2.0 | 6.0 | 0.00 | 0.00 | 0.00 | 43 | 1014.1 |
| 20260507163015 | 67 | 62 | 0.0 | 7.0 | 0.00 | 0.00 | 0.00 | 46 | 1014.2 |
| 20260507161521 | 67 | 301 | 0.0 | 1.0 | 0.00 | 0.00 | 0.00 | 48 | 1014.3 |
| 20260507160010 | 64 | 200 | 0.0 | 1.0 | 0.00 | 0.00 | 0.00 | 54 | 1014.5 |
| 20260507154506 | 62 | 6 | 0.0 | 4.0 | 0.00 | 0.00 | 0.00 | 56 | 1014.6 |
| 20260507153003 | 60 | 84 | 1.0 | 6.0 | 0.00 | 0.00 | 0.00 | 59 | 1014.5 |
| 20260507151501 | 59 | 325 | 1.0 | 5.0 | 0.00 | 0.00 | 0.00 | 62 | 1014.5 |
| 20260507150100 | 59 | 20 | 2.0 | 4.0 | 0.00 | 0.00 | 0.00 | 62 | 1014.5 |
| 20260507144616 | 58 | 30 | 1.0 | 3.0 | 0.00 | 0.00 | 0.00 | 64 | 1014.4 |
| 20260507143058 | 56 | 25 | 0.0 | 2.0 | 0.00 | 0.00 | 0.00 | 67 | 1014.4 |
| 20260507141622 | 55 | 25 | 0.0 | 2.0 | 0.00 | 0.00 | 0.00 | 69 | 1014.3 |
| 20260507140057 | 52 | 28 | 0.0 | 2.0 | 0.00 | 0.00 | 0.00 | 73 | 1014.4 |
| 20260507134556 | 52 | 14 | 0.0 | 2.0 | 0.00 | 0.00 | 0.00 | 72 | 1014.4 |
| 20260507133055 | 50 | 1 | 0.0 | 2.0 | 0.00 | 0.00 | 0.00 | 76 | 1014.3 |
| 20260507131553 | 50 | 34 | 0.0 | 5.0 | 0.00 | 0.00 | 0.00 | 75 | 1014.1 |
| 20260507124549 | 51 | 15 | 2.0 | 5.0 | 0.00 | 0.00 | 0.00 | 73 | 1014.0 |
| 20260507123049 | 51 | 341 | 1.0 | 5.0 | 0.00 | 0.00 | 0.00 | 73 | 1014.1 |
| 20260507121547 | 52 | 335 | 2.0 | 6.0 | 0.00 | 0.00 | 0.00 | 72 | 1014.2 |
| 20260507120046 | 52 | 273 | 3.0 | 5.0 | 0.00 | 0.00 | 0.00 | 72 | 1014.1 |
| 20260507114544 | 52 | 311 | 1.0 | 4.0 | 0.00 | 0.00 | 0.00 | 71 | 1014.2 |
| 20260507113042 | 52 | 285 | 2.0 | 5.0 | 0.00 | 0.00 | 0.00 | 72 | 1014.3 |
| 20260507111544 | 52 | 18 | 1.0 | 5.0 | 0.00 | 0.00 | 0.00 | 74 | 1014.4 |
| 20260507110037 | 53 | 337 | 1.0 | 4.0 | 0.00 | 0.00 | 0.00 | 68 | 1014.4 |
| 20260507104535 | 54 | 359 | 1.0 | 5.0 | 0.00 | 0.00 | 0.00 | 66 | 1014.4 |
| 20260507103036 | 54 | 345 | 0.0 | 3.0 | 0.00 | 0.00 | 0.00 | 67 | 1014.3 |
| 20260507101543 | 55 | 332 | 1.0 | 4.0 | 0.00 | 0.00 | 0.00 | 65 | 1014.4 |
| 20260507100035 | 55 | 354 | 1.0 | 3.0 | 0.00 | 0.00 | 0.00 | 64 | 1014.4 |
| 20260507094538 | 56 | 320 | 0.0 | 3.0 | 0.00 | 0.00 | 0.00 | 63 | 1014.4 |
| 20260507093032 | 58 | 316 | 3.0 | 5.0 | 0.00 | 0.00 | 0.00 | 59 | 1014.5 |
| 20260507091529 | 58 | 302 | 2.0 | 3.0 | 0.00 | 0.00 | 0.00 | 63 | 1014.6 |
| 20260507090032 | 58 | 345 | 0.0 | 0.0 | 0.00 | 0.00 | 0.00 | 63 | 1014.6 |
| 20260507084525 | 59 | 345 | 0.0 | 0.0 | 0.00 | 0.00 | 0.00 | 62 | 1014.7 |
| 20260507083022 | 58 | 345 | 0.0 | 0.0 | 0.00 | 0.00 | 0.00 | 63 | 1014.8 |
| 20260507081524 | 57 | 345 | 0.0 | 0.0 | 0.00 | 0.00 | 0.00 | 66 | 1014.7 |
| 20260507080018 | 57 | 345 | 0.0 | 2.0 | 0.00 | 0.00 | 0.00 | 67 | 1014.7 |
| 20260507074515 | 58 | 345 | 1.0 | 3.0 | 0.00 | 0.00 | 0.00 | 66 | 1014.7 |
| 20260507073013 | 58 | 347 | 0.0 | 3.0 | 0.00 | 0.00 | 0.00 | 65 | 1014.6 |
| 20260507071510 | 59 | 352 | 0.0 | 4.0 | 0.00 | 0.00 | 0.00 | 63 | 1014.6 |
| 20260507070011 | 59 | 20 | 1.0 | 3.0 | 0.00 | 0.00 | 0.00 | 62 | 1014.6 |
| 20260507064507 | 59 | 342 | 0.0 | 5.0 | 0.00 | 0.00 | 0.00 | 63 | 1014.5 |
| 20260507063006 | 60 | 359 | 1.0 | 7.0 | 0.00 | 0.00 | 0.00 | 62 | 1014.5 |
| 20260507061506 | 61 | 5 | 3.0 | 7.0 | 0.00 | 0.00 | 0.00 | 62 | 1014.4 |
| 20260507060006 | 61 | 266 | 4.0 | 8.0 | 0.00 | 0.00 | 0.00 | 60 | 1014.4 |
| 20260507054504 | 61 | 352 | 1.0 | 6.0 | 0.00 | 0.00 | 0.00 | 59 | 1014.4 |
| 20260507053003 | 61 | 23 | 1.0 | 5.0 | 0.00 | 0.00 | 0.00 | 60 | 1014.4 |
| 20260507051503 | 61 | 43 | 1.0 | 5.0 | 0.00 | 0.00 | 0.00 | 59 | 1014.5 |
| 20260507050002 | 61 | 12 | 0.0 | 4.0 | 0.00 | 0.00 | 0.00 | 56 | 1014.3 |
| 20260507044500 | 61 | 28 | 2.0 | 4.0 | 0.00 | 0.00 | 0.00 | 51 | 1014.3 |
| 20260507043105 | 61 | 36 | 0.0 | 1.0 | 0.00 | 0.00 | 0.00 | 46 | 1014.3 |
| 20260507041606 | 62 | 328 | 2.0 | 3.0 | 0.00 | 0.00 | 0.00 | 44 | 1014.2 |
| 20260507040059 | 62 | 340 | 1.0 | 4.0 | 0.00 | 0.00 | 0.00 | 42 | 1014.2 |
| 20260507034613 | 67 | 288 | 1.0 | 2.0 | 0.00 | 0.00 | 0.00 | 34 | 1013.9 |
| 20260507033058 | 67 | 288 | 1.0 | 3.0 | 0.00 | 0.00 | 0.00 | 34 | 1013.7 |
| 20260507031558 | 67 | 288 | 1.0 | 3.0 | 0.00 | 0.00 | 0.00 | 35 | 1013.7 |
| 20260507024559 | 69 | 285 | 0.0 | 1.0 | 0.00 | 0.00 | 0.00 | 32 | 1013.4 |
| 20260507023056 | 72 | 341 | 0.0 | 0.0 | 0.00 | 0.00 | 0.00 | 29 | 1013.4 |
| 20260507021556 | 74 | 26 | 0.0 | 2.0 | 0.00 | 0.00 | 0.00 | 27 | 1013.4 |
| 20260507020053 | 74 | 330 | 0.0 | 7.0 | 0.00 | 0.00 | 0.00 | 27 | 1013.4 |
| 20260507014554 | 74 | 333 | 0.0 | 8.0 | 0.00 | 0.00 | 0.00 | 25 | 1013.4 |
| 20260507013059 | 74 | 243 | 1.0 | 9.0 | 0.00 | 0.00 | 0.00 | 26 | 1013.4 |
| 20260507011550 | 75 | 328 | 1.0 | 11.0 | 0.00 | 0.00 | 0.00 | 26 | 1013.4 |
| 20260507010048 | 76 | 306 | 0.0 | 5.0 | 0.00 | 0.00 | 0.00 | 25 | 1013.4 |
| 20260507004547 | 75 | 291 | 0.0 | 8.0 | 0.00 | 0.00 | 0.00 | 24 | 1013.4 |
| 20260507003046 | 75 | 49 | 1.0 | 10.0 | 0.00 | 0.00 | 0.00 | 22 | 1013.4 |
| 20260507001545 | 76 | 342 | 0.0 | 6.0 | 0.00 | 0.00 | 0.00 | 24 | 1013.5 |
| 20260507000051 | 75 | 304 | 0.0 | 9.0 | 0.00 | 0.00 | 0.00 | 24 | 1013.7 |